LU1MQF-13 Weather Reports


Display with metric or nautical units.
time (UTC)temp
F
wind
direction
speed
MPH
gust
MPH
rain 1hr
in
rain 24hr
in
rain mn
in
humidity
%
barometer
mb
20260509172718 61 0 0.0 0.0 0.00 0.00 0.00 41 949.4
20260509171218 61 0 0.0 0.0 0.00 0.00 0.00 44 949.7
20260509165718 61 0 0.0 0.0 0.00 0.00 0.00 40 949.9
20260509164218 61 0 0.0 0.0 0.00 0.00 0.00 39 950.0
20260509162718 59 0 0.0 0.0 0.00 0.00 0.00 38 950.5
20260509161218 59 0 0.0 0.0 0.00 0.00 0.00 36 950.8
20260509155718 59 0 0.0 0.0 0.00 0.00 0.00 36 951.1
20260509154218 59 0 0.0 0.0 0.00 0.00 0.00 38 951.3
20260509152717 59 0 0.0 0.0 0.00 0.00 0.00 39 951.6
20260509151218 59 0 0.0 0.0 0.00 0.00 0.00 38 951.6
20260509145717 59 0 0.0 0.0 0.00 0.00 0.00 38 951.8
20260509144217 57 0 0.0 0.0 0.00 0.00 0.00 40 951.8
20260509142717 57 0 0.0 0.0 0.00 0.00 0.00 42 951.8
20260509141217 55 0 0.0 0.0 0.00 0.00 0.00 41 951.9
20260509135718 55 0 0.0 0.0 0.00 0.00 0.00 40 951.9
20260509134218 55 0 0.0 0.0 0.00 0.00 0.00 40 952.0
20260509132718 55 0 0.0 0.0 0.00 0.00 0.00 41 951.8
20260509131217 54 0 0.0 0.0 0.00 0.00 0.00 39 951.9
20260509125717 54 0 0.0 0.0 0.00 0.00 0.00 40 951.8
20260509124217 54 0 0.0 0.0 0.00 0.00 0.00 39 951.5
20260509122717 52 0 0.0 0.0 0.00 0.00 0.00 39 951.3
20260509121217 52 0 0.0 0.0 0.00 0.00 0.00 39 951.0
20260509115717 52 0 0.0 0.0 0.00 0.00 0.00 39 950.8
20260509114217 50 0 0.0 0.0 0.00 0.00 0.00 40 950.6
20260509112717 50 0 0.0 0.0 0.00 0.00 0.00 40 950.6
20260509111217 50 0 0.0 0.0 0.00 0.00 0.00 40 950.1
20260509105717 52 0 0.0 0.0 0.00 0.00 0.00 39 950.1
20260509104217 52 0 0.0 0.0 0.00 0.00 0.00 39 950.0
20260509102717 52 0 0.0 0.0 0.00 0.00 0.00 39 950.0
20260509101217 52 0 0.0 0.0 0.00 0.00 0.00 39 949.9
20260509095717 52 0 0.0 0.0 0.00 0.00 0.00 40 949.8
20260509094217 52 0 0.0 0.0 0.00 0.00 0.00 40 949.6
20260509092717 52 0 0.0 0.0 0.00 0.00 0.00 40 949.4
20260509091217 52 0 0.0 0.0 0.00 0.00 0.00 40 949.1
20260509085717 52 0 0.0 0.0 0.00 0.00 0.00 40 948.9
20260509084217 52 0 0.0 0.0 0.00 0.00 0.00 40 948.9
20260509082717 52 0 0.0 0.0 0.00 0.00 0.00 40 948.8
20260509081217 54 0 0.0 0.0 0.00 0.00 0.00 40 948.8
20260509075717 54 0 0.0 0.0 0.00 0.00 0.00 40 948.6
20260509074217 54 0 0.0 0.0 0.00 0.00 0.00 40 948.7
20260509072717 54 0 0.0 0.0 0.00 0.00 0.00 40 948.8
20260509071217 54 0 0.0 0.0 0.00 0.00 0.00 40 948.5
20260509065717 54 0 0.0 0.0 0.00 0.00 0.00 41 948.5
20260509064217 54 0 0.0 0.0 0.00 0.00 0.00 41 948.5
20260509062717 54 0 0.0 0.0 0.00 0.00 0.00 41 948.5
20260509061217 54 0 0.0 0.0 0.00 0.00 0.00 41 948.4
20260509055717 55 0 0.0 0.0 0.00 0.00 0.00 41 948.4
20260509054216 55 0 0.0 0.0 0.00 0.00 0.00 41 948.4
20260509052716 54 0 0.0 0.0 0.00 0.00 0.00 41 948.3
20260509051216 54 0 0.0 0.0 0.00 0.00 0.00 41 948.1
20260509045717 54 0 0.0 0.0 0.00 0.00 0.00 41 947.8
20260509044217 54 0 0.0 0.0 0.00 0.00 0.00 42 947.4
20260509042717 55 0 0.0 0.0 0.00 0.00 0.00 43 947.0
20260509041217 55 0 0.0 0.0 0.00 0.00 0.00 46 947.0
20260509035717 55 0 0.0 0.0 0.00 0.00 0.00 44 947.0
20260509034216 55 0 0.0 0.0 0.00 0.00 0.00 45 947.1
20260509032716 55 0 0.0 0.0 0.00 0.00 0.00 46 947.0
20260509031217 55 0 0.0 0.0 0.00 0.00 0.00 47 947.2
20260509025717 55 0 0.0 0.0 0.00 0.00 0.00 43 947.4
20260509024216 55 0 0.0 0.0 0.00 0.00 0.00 44 947.2
20260509022716 55 0 0.0 0.0 0.00 0.00 0.00 44 946.9
20260509021217 55 0 0.0 0.0 0.00 0.00 0.00 48 946.9
20260509015717 55 0 0.0 0.0 0.00 0.00 0.00 44 946.9
20260509014216 55 0 0.0 0.0 0.00 0.00 0.00 43 946.6
20260509012716 55 0 0.0 0.0 0.00 0.00 0.00 42 946.1
20260509011216 55 0 0.0 0.0 0.00 0.00 0.00 45 946.0
20260509005716 57 0 0.0 0.0 0.00 0.00 0.00 46 946.0
20260509004217 57 0 0.0 0.0 0.00 0.00 0.00 50 945.7
20260509002716 57 0 0.0 0.0 0.00 0.00 0.00 59 945.1
20260509001216 57 0 0.0 0.0 0.00 0.00 0.00 43 945.0
20260508235716 57 0 0.0 0.0 0.00 0.00 0.00 39 944.6
20260508234216 57 0 0.0 0.0 0.00 0.00 0.00 39 944.2
20260508232716 55 0 0.0 0.0 0.00 0.00 0.00 36 943.8
20260508231216 57 0 0.0 0.0 0.00 0.00 0.00 36 942.8
20260508225716 55 0 0.0 0.0 0.00 0.00 0.00 36 942.9
20260508224216 55 0 0.0 0.0 0.00 0.00 0.00 36 942.3
20260508222716 55 0 0.0 0.0 0.00 0.00 0.00 36 941.6
20260508221216 55 0 0.0 0.0 0.00 0.00 0.00 36 940.9
20260508215716 55 0 0.0 0.0 0.00 0.00 0.00 36 940.3
20260508214216 55 0 0.0 0.0 0.00 0.00 0.00 36 940.0
20260508212716 57 0 0.0 0.0 0.00 0.00 0.00 36 939.2
20260508211216 57 0 0.0 0.0 0.00 0.00 0.00 35 938.8
20260508205716 59 0 0.0 0.0 0.00 0.00 0.00 32 938.0
20260508204216 61 0 0.0 0.0 0.00 0.00 0.00 28 937.6
20260508202716 61 0 0.0 0.0 0.00 0.00 0.00 25 936.7
20260508201216 63 0 0.0 0.0 0.00 0.00 0.00 24 935.5
20260508195716 63 0 0.0 0.0 0.00 0.00 0.00 22 934.8
20260508194216 64 0 0.0 0.0 0.00 0.00 0.00 24 933.9
20260508191216 66 0 0.0 0.0 0.00 0.00 0.00 25 933.5
20260508185716 66 0 0.0 0.0 0.00 0.00 0.00 22 933.1
20260508184216 66 0 0.0 0.0 0.00 0.00 0.00 24 932.9
20260508182715 66 0 0.0 0.0 0.00 0.00 0.00 24 932.7
20260508181215 66 0 0.0 0.0 0.00 0.00 0.00 28 932.6
20260508175715 68 0 0.0 0.0 0.00 0.00 0.00 38 932.8
20260508174216 66 0 0.0 0.0 0.00 0.00 0.00 28 932.8